| time (UTC) | temp C | wind direction | speed KPH | gust KPH | rain 1hr cm | rain 24hr cm | rain mn cm | humidity % | barometer mb |
| 20260504020908 | 12 | 22 | 3.2 | 3.2 | 0.00 | 0.00 | 0.00 | 81 | 1012.0 |
| 20260504020408 | 13 | 22 | 4.8 | 6.4 | 0.00 | 0.00 | 0.00 | 81 | 1012.0 |
| 20260504015908 | 13 | 22 | 4.8 | 4.8 | 0.00 | 0.00 | 0.00 | 81 | 1012.0 |
| 20260504015408 | 13 | 68 | 6.4 | 6.4 | 0.00 | 0.00 | 0.00 | 81 | 1012.0 |
| 20260504014908 | 13 | 45 | 6.4 | 8.0 | 0.00 | 0.00 | 0.00 | 80 | 1012.0 |
| 20260504014408 | 13 | 45 | 8.0 | 8.0 | 0.00 | 0.00 | 0.00 | 79 | 1012.0 |
| 20260504013908 | 13 | 68 | 4.8 | 4.8 | 0.00 | 0.00 | 0.00 | 78 | 1012.0 |
| 20260504013408 | 13 | 68 | 3.2 | 3.2 | 0.00 | 0.00 | 0.00 | 77 | 1012.0 |
| 20260504012908 | 13 | 22 | 9.7 | 9.7 | 0.00 | 0.00 | 0.00 | 77 | 1012.0 |
| 20260504012408 | 13 | 45 | 3.2 | 3.2 | 0.00 | 0.00 | 0.00 | 76 | 1012.0 |
| 20260504011908 | 13 | 45 | 3.2 | 3.2 | 0.00 | 0.00 | 0.00 | 75 | 1012.0 |
| 20260504011408 | 13 | 22 | 4.8 | 4.8 | 0.00 | 0.00 | 0.00 | 74 | 1012.0 |
| 20260504005408 | 15 | 112 | 1.6 | 1.6 | 0.00 | 0.00 | 0.00 | 64 | 1012.0 |
| 20260504004908 | 15 | 112 | 1.6 | 1.6 | 0.00 | 0.00 | 0.00 | 64 | 1012.0 |
| 20260504004409 | 15 | 112 | 1.6 | 1.6 | 0.00 | 0.00 | 0.00 | 64 | 1012.0 |
| 20260504003908 | 15 | 135 | 3.2 | 3.2 | 0.00 | 0.00 | 0.00 | 64 | 1012.0 |
| 20260504003408 | 15 | 112 | 0.0 | 0.0 | 0.00 | 0.00 | 0.00 | 63 | 1012.0 |
| 20260504002908 | 15 | 158 | 0.0 | 0.0 | 0.00 | 0.00 | 0.00 | 63 | 1012.0 |
| 20260504002408 | 15 | 158 | 3.2 | 3.2 | 0.00 | 0.00 | 0.00 | 62 | 1012.0 |
| 20260504001908 | 15 | 158 | 3.2 | 3.2 | 0.00 | 0.00 | 0.00 | 62 | 1012.0 |
| 20260504001409 | 15 | 158 | 3.2 | 3.2 | 0.00 | 0.00 | 0.00 | 62 | 1012.0 |
| 20260504000908 | 15 | 180 | 1.6 | 1.6 | 0.00 | 0.00 | 0.00 | 62 | 1012.0 |
| 20260504000409 | 15 | 180 | 0.0 | 0.0 | 0.00 | 0.00 | 0.00 | 63 | 1012.0 |
| 20260503235908 | 15 | 202 | 3.2 | 3.2 | 0.00 | 0.00 | 0.00 | 63 | 1012.0 |
| 20260503235408 | 15 | 202 | 3.2 | 3.2 | 0.00 | 0.00 | 0.00 | 64 | 1012.0 |
| 20260503234908 | 15 | 158 | 4.8 | 4.8 | 0.00 | 0.00 | 0.00 | 63 | 1012.0 |
| 20260503234408 | 15 | 202 | 3.2 | 3.2 | 0.00 | 0.00 | 0.00 | 64 | 1012.0 |
| 20260503233908 | 15 | 202 | 1.6 | 1.6 | 0.00 | 0.00 | 0.00 | 63 | 1012.0 |
| 20260503233408 | 15 | 202 | 3.2 | 3.2 | 0.00 | 0.00 | 0.00 | 64 | 1012.0 |
| 20260503232908 | 15 | 158 | 4.8 | 4.8 | 0.00 | 0.00 | 0.00 | 64 | 1012.0 |
| 20260503232408 | 15 | 248 | 1.6 | 1.6 | 0.00 | 0.00 | 0.00 | 63 | 1012.0 |
| 20260503231908 | 15 | 180 | 8.0 | 8.0 | 0.00 | 0.00 | 0.00 | 63 | 1012.0 |
| 20260503231408 | 15 | 158 | 4.8 | 4.8 | 0.00 | 0.00 | 0.00 | 63 | 1012.0 |
| 20260503230909 | 15 | 158 | 6.4 | 8.0 | 0.00 | 0.00 | 0.00 | 63 | 1012.0 |
| 20260503230408 | 15 | 202 | 8.0 | 8.0 | 0.00 | 0.00 | 0.00 | 63 | 1012.0 |
| 20260503225908 | 15 | 158 | 8.0 | 8.0 | 0.00 | 0.00 | 0.00 | 64 | 1012.0 |
| 20260503225408 | 15 | 248 | 4.8 | 4.8 | 0.00 | 0.00 | 0.00 | 64 | 1012.0 |
| 20260503224908 | 15 | 180 | 6.4 | 8.0 | 0.00 | 0.00 | 0.00 | 64 | 1012.0 |
| 20260503224408 | 15 | 158 | 6.4 | 6.4 | 0.00 | 0.00 | 0.00 | 64 | 1012.0 |
| 20260503223908 | 15 | 248 | 4.8 | 4.8 | 0.00 | 0.00 | 0.00 | 63 | 1012.0 |
| 20260503223408 | 15 | 202 | 3.2 | 3.2 | 0.00 | 0.00 | 0.00 | 64 | 1012.0 |
| 20260503222908 | 15 | 158 | 11.3 | 12.9 | 0.00 | 0.00 | 0.00 | 64 | 1012.0 |
| 20260503222408 | 15 | 180 | 8.0 | 8.0 | 0.00 | 0.00 | 0.00 | 63 | 1012.0 |
| 20260503221908 | 15 | 248 | 11.3 | 12.9 | 0.00 | 0.00 | 0.00 | 62 | 1012.0 |
| 20260503221408 | 15 | 135 | 11.3 | 11.3 | 0.00 | 0.00 | 0.00 | 62 | 1012.0 |
| 20260503220908 | 15 | 225 | 12.9 | 14.5 | 0.00 | 0.00 | 0.00 | 62 | 1012.0 |
| 20260503220409 | 15 | 180 | 4.8 | 4.8 | 0.00 | 0.00 | 0.00 | 62 | 1012.0 |
| 20260503215908 | 15 | 158 | 6.4 | 6.4 | 0.00 | 0.00 | 0.00 | 62 | 1012.0 |
| 20260503215408 | 15 | 225 | 9.7 | 11.3 | 0.00 | 0.00 | 0.00 | 62 | 1012.0 |
| 20260503214909 | 15 | 158 | 9.7 | 9.7 | 0.00 | 0.00 | 0.00 | 62 | 1012.0 |
| 20260503214409 | 15 | 202 | 6.4 | 8.0 | 0.00 | 0.00 | 0.00 | 62 | 1012.0 |
| 20260503213908 | 15 | 202 | 6.4 | 8.0 | 0.00 | 0.00 | 0.00 | 62 | 1012.0 |
| 20260503213408 | 15 | 248 | 11.3 | 11.3 | 0.00 | 0.00 | 0.00 | 61 | 1012.0 |
| 20260503212908 | 15 | 202 | 11.3 | 11.3 | 0.00 | 0.00 | 0.00 | 61 | 1012.0 |
| 20260503212409 | 15 | 202 | 12.9 | 14.5 | 0.00 | 0.00 | 0.00 | 61 | 1012.0 |
| 20260503211908 | 15 | 202 | 11.3 | 12.9 | 0.00 | 0.00 | 0.00 | 61 | 1012.0 |
| 20260503211408 | 15 | 248 | 12.9 | 12.9 | 0.00 | 0.00 | 0.00 | 61 | 1012.0 |
| 20260503210908 | 15 | 248 | 11.3 | 11.3 | 0.00 | 0.00 | 0.00 | 62 | 1012.0 |
| 20260503210408 | 15 | 225 | 14.5 | 16.1 | 0.00 | 0.00 | 0.00 | 62 | 1012.0 |
| 20260503205908 | 15 | 158 | 8.0 | 9.7 | 0.00 | 0.00 | 0.00 | 61 | 1012.0 |
| 20260503205409 | 15 | 158 | 8.0 | 8.0 | 0.00 | 0.00 | 0.00 | 62 | 1012.0 |
| 20260503204909 | 15 | 158 | 11.3 | 12.9 | 0.00 | 0.00 | 0.00 | 62 | 1012.0 |
| 20260503204408 | 15 | 248 | 9.7 | 9.7 | 0.00 | 0.00 | 0.00 | 62 | 1012.0 |
| 20260503203908 | 15 | 202 | 8.0 | 8.0 | 0.00 | 0.00 | 0.00 | 61 | 1012.0 |
| 20260503203409 | 15 | 112 | 8.0 | 8.0 | 0.00 | 0.00 | 0.00 | 62 | 1012.0 |
| 20260503202908 | 15 | 225 | 6.4 | 6.4 | 0.00 | 0.00 | 0.00 | 61 | 1012.0 |
| 20260503202408 | 15 | 202 | 6.4 | 8.0 | 0.00 | 0.00 | 0.00 | 61 | 1012.0 |
| 20260503201908 | 15 | 158 | 9.7 | 9.7 | 0.00 | 0.00 | 0.00 | 60 | 1012.0 |
| 20260503201408 | 15 | 135 | 12.9 | 14.5 | 0.00 | 0.00 | 0.00 | 60 | 1012.0 |
| 20260503200908 | 15 | 158 | 8.0 | 8.0 | 0.00 | 0.00 | 0.00 | 61 | 1012.0 |
| 20260503200408 | 15 | 180 | 6.4 | 8.0 | 0.00 | 0.00 | 0.00 | 63 | 1012.0 |
| 20260503195908 | 15 | 135 | 6.4 | 8.0 | 0.00 | 0.00 | 0.00 | 61 | 1012.0 |
| 20260503195408 | 15 | 158 | 14.5 | 16.1 | 0.00 | 0.00 | 0.00 | 61 | 1012.0 |
| 20260503194908 | 15 | 135 | 11.3 | 11.3 | 0.00 | 0.00 | 0.00 | 61 | 1012.0 |
| 20260503194408 | 15 | 135 | 8.0 | 8.0 | 0.00 | 0.00 | 0.00 | 61 | 1011.0 |
| 20260503193908 | 15 | 180 | 6.4 | 8.0 | 0.00 | 0.00 | 0.00 | 61 | 1011.0 |
| 20260503193409 | 15 | 158 | 8.0 | 8.0 | 0.00 | 0.00 | 0.00 | 60 | 1011.0 |
| 20260503192908 | 15 | 180 | 9.7 | 9.7 | 0.00 | 0.00 | 0.00 | 60 | 1011.0 |
| 20260503192409 | 15 | 202 | 6.4 | 6.4 | 0.00 | 0.00 | 0.00 | 60 | 1011.0 |
| 20260503191908 | 15 | 135 | 9.7 | 9.7 | 0.00 | 0.00 | 0.00 | 58 | 1011.0 |
| 20260503191408 | 15 | 202 | 12.9 | 14.5 | 0.00 | 0.00 | 0.00 | 57 | 1011.0 |
| 20260503190908 | 15 | 135 | 9.7 | 9.7 | 0.00 | 0.00 | 0.00 | 57 | 1011.0 |
| 20260503190408 | 15 | 135 | 9.7 | 12.9 | 0.00 | 0.00 | 0.00 | 55 | 1011.0 |
| 20260503185908 | 15 | 135 | 4.8 | 4.8 | 0.00 | 0.00 | 0.00 | 55 | 1011.0 |
| 20260503185408 | 15 | 202 | 8.0 | 8.0 | 0.00 | 0.00 | 0.00 | 55 | 1011.0 |
| 20260503184908 | 15 | 202 | 9.7 | 9.7 | 0.00 | 0.00 | 0.00 | 56 | 1011.0 |
| 20260503184408 | 15 | 135 | 12.9 | 14.5 | 0.00 | 0.00 | 0.00 | 56 | 1011.0 |
| 20260503183912 | 15 | 158 | 6.4 | 8.0 | 0.00 | 0.00 | 0.00 | 56 | 1011.0 |
| 20260503183409 | 16 | 158 | 12.9 | 14.5 | 0.00 | 0.00 | 0.00 | 59 | 1011.0 |
| 20260503182909 | 16 | 158 | 14.5 | 16.1 | 0.00 | 0.00 | 0.00 | 59 | 1011.0 |
| 20260503182408 | 16 | 158 | 9.7 | 9.7 | 0.00 | 0.00 | 0.00 | 59 | 1011.0 |
| 20260503181908 | 16 | 158 | 6.4 | 8.0 | 0.00 | 0.00 | 0.00 | 58 | 1011.0 |
| 20260503181410 | 16 | 180 | 4.8 | 4.8 | 0.00 | 0.00 | 0.00 | 59 | 1010.0 |
| 20260503180908 | 16 | 112 | 11.3 | 12.9 | 0.00 | 0.00 | 0.00 | 59 | 1010.0 |
| 20260503180409 | 16 | 158 | 4.8 | 6.4 | 0.00 | 0.00 | 0.00 | 60 | 1010.0 |
| 20260503175908 | 16 | 225 | 8.0 | 8.0 | 0.00 | 0.00 | 0.00 | 60 | 1010.0 |
| 20260503175409 | 16 | 202 | 6.4 | 8.0 | 0.00 | 0.00 | 0.00 | 59 | 1010.0 |
| 20260503174908 | 16 | 225 | 6.4 | 8.0 | 0.00 | 0.00 | 0.00 | 58 | 1010.0 |
| 20260503174408 | 16 | 158 | 9.7 | 9.7 | 0.00 | 0.00 | 0.00 | 57 | 1010.0 |
| 20260503173909 | 16 | 202 | 8.0 | 9.7 | 0.00 | 0.00 | 0.00 | 58 | 1010.0 |
| 20260503173409 | 16 | 225 | 8.0 | 9.7 | 0.00 | 0.00 | 0.00 | 58 | 1010.0 |
| 20260503172908 | 16 | 158 | 9.7 | 9.7 | 0.00 | 0.00 | 0.00 | 57 | 1010.0 |
| 20260503172408 | 17 | 202 | 3.2 | 3.2 | 0.00 | 0.00 | 0.00 | 53 | 1010.0 |
| 20260503171908 | 17 | 202 | 9.7 | 9.7 | 0.00 | 0.00 | 0.00 | 52 | 1010.0 |
| 20260503171408 | 17 | 202 | 8.0 | 8.0 | 0.00 | 0.00 | 0.00 | 53 | 1010.0 |
| 20260503170908 | 17 | 225 | 11.3 | 11.3 | 0.00 | 0.00 | 0.00 | 53 | 1010.0 |
| 20260503170408 | 17 | 202 | 6.4 | 8.0 | 0.00 | 0.00 | 0.00 | 53 | 1010.0 |
| 20260503150908 | 21 | 202 | 9.7 | 9.7 | 0.00 | 0.00 | 0.00 | 28 | 1009.0 |
| 20260503150408 | 21 | 180 | 4.8 | 4.8 | 0.00 | 0.00 | 0.00 | 28 | 1009.0 |
| 20260503131408 | 21 | 45 | 4.8 | 4.8 | 0.00 | 0.00 | 0.00 | 32 | 1009.0 |
| 20260503130908 | 21 | 112 | 6.4 | 6.4 | 0.00 | 0.00 | 0.00 | 33 | 1009.0 |
| 20260503130409 | 20 | 248 | 6.4 | 8.0 | 0.00 | 0.00 | 0.00 | 34 | 1009.0 |
| 20260503110408 | 18 | 202 | 3.2 | 3.2 | 0.00 | 0.00 | 0.00 | 41 | 1009.0 |
| 20260503090408 | 16 | 248 | 6.4 | 6.4 | 0.00 | 0.00 | 0.00 | 51 | 1009.0 |
| 20260503081408 | 17 | 292 | 6.4 | 8.0 | 0.00 | 0.00 | 0.00 | 44 | 1009.0 |
| 20260503080908 | 17 | 338 | 0.0 | 0.0 | 0.00 | 0.00 | 0.00 | 47 | 1009.0 |
| 20260503080408 | 17 | 68 | 0.0 | 0.0 | 0.00 | 0.00 | 0.00 | 46 | 1009.0 |
| 20260503072908 | 15 | 68 | 0.0 | 0.0 | 0.00 | 0.00 | 0.00 | 54 | 1009.0 |
| 20260503072408 | 15 | 68 | 8.0 | 8.0 | 0.00 | 0.00 | 0.00 | 54 | 1009.0 |
| 20260503071908 | 15 | 90 | 6.4 | 6.4 | 0.00 | 0.00 | 0.00 | 54 | 1009.0 |
| 20260503071409 | 15 | 68 | 6.4 | 6.4 | 0.00 | 0.00 | 0.00 | 53 | 1009.0 |
| 20260503070908 | 15 | 68 | 9.7 | 9.7 | 0.00 | 0.00 | 0.00 | 54 | 1009.0 |
| 20260503070408 | 15 | 68 | 4.8 | 4.8 | 0.00 | 0.00 | 0.00 | 54 | 1009.0 |
| 20260503054908 | 13 | 45 | 3.2 | 3.2 | 0.00 | 0.00 | 0.00 | 60 | 1009.0 |
| 20260503054408 | 13 | 45 | 1.6 | 1.6 | 0.00 | 0.00 | 0.00 | 60 | 1009.0 |
| 20260503053910 | 14 | 45 | 0.0 | 0.0 | 0.00 | 0.00 | 0.00 | 59 | 1009.0 |
| 20260503053408 | 14 | 45 | 0.0 | 0.0 | 0.00 | 0.00 | 0.00 | 56 | 1009.0 |
| 20260503052909 | 13 | 68 | 0.0 | 0.0 | 0.00 | 0.00 | 0.00 | 58 | 1009.0 |
| 20260503052408 | 13 | 68 | 0.0 | 0.0 | 0.00 | 0.00 | 0.00 | 62 | 1009.0 |
| 20260503051908 | 13 | 68 | 3.2 | 3.2 | 0.00 | 0.00 | 0.00 | 62 | 1009.0 |
| 20260503051408 | 13 | 68 | 0.0 | 0.0 | 0.00 | 0.00 | 0.00 | 65 | 1009.0 |
| 20260503050911 | 12 | 68 | 6.4 | 8.0 | 0.00 | 0.00 | 0.00 | 66 | 1009.0 |
| 20260503050408 | 12 | 68 | 4.8 | 4.8 | 0.00 | 0.00 | 0.00 | 67 | 1009.0 |
| 20260503045909 | 12 | 68 | 6.4 | 6.4 | 0.00 | 0.00 | 0.00 | 66 | 1009.0 |
| 20260503045408 | 12 | 68 | 4.8 | 6.4 | 0.00 | 0.00 | 0.00 | 67 | 1009.0 |
| 20260503044908 | 12 | 68 | 8.0 | 8.0 | 0.00 | 0.00 | 0.00 | 66 | 1009.0 |
| 20260503044408 | 12 | 68 | 3.2 | 3.2 | 0.00 | 0.00 | 0.00 | 65 | 1009.0 |
| 20260503043908 | 12 | 68 | 8.0 | 8.0 | 0.00 | 0.00 | 0.00 | 64 | 1009.0 |
| 20260503043408 | 12 | 68 | 6.4 | 6.4 | 0.00 | 0.00 | 0.00 | 66 | 1009.0 |
| 20260503042908 | 11 | 45 | 3.2 | 3.2 | 0.00 | 0.00 | 0.00 | 65 | 1009.0 |
| 20260503042408 | 11 | 45 | 4.8 | 4.8 | 0.00 | 0.00 | 0.00 | 65 | 1009.0 |
| 20260503041909 | 11 | 68 | 3.2 | 3.2 | 0.00 | 0.00 | 0.00 | 68 | 1009.0 |
| 20260503041408 | 11 | 68 | 4.8 | 4.8 | 0.00 | 0.00 | 0.00 | 69 | 1010.0 |
| 20260503040908 | 11 | 45 | 6.4 | 8.0 | 0.00 | 0.00 | 0.00 | 69 | 1010.0 |
| 20260503040408 | 11 | 68 | 3.2 | 3.2 | 0.00 | 0.00 | 0.00 | 67 | 1010.0 |
| 20260503035908 | 11 | 22 | 9.7 | 9.7 | 0.00 | 0.00 | 0.00 | 67 | 1009.0 |
| 20260503035408 | 11 | 68 | 3.2 | 3.2 | 0.00 | 0.00 | 0.00 | 68 | 1009.0 |
| 20260503034908 | 11 | 45 | 4.8 | 4.8 | 0.00 | 0.00 | 0.00 | 68 | 1009.0 |
| 20260503034408 | 11 | 45 | 3.2 | 3.2 | 0.00 | 0.00 | 0.00 | 67 | 1009.0 |
| 20260503033908 | 11 | 45 | 6.4 | 6.4 | 0.00 | 0.00 | 0.00 | 68 | 1009.0 |
| 20260503033408 | 11 | 68 | 4.8 | 6.4 | 0.00 | 0.00 | 0.00 | 69 | 1009.0 |
| 20260503032908 | 11 | 68 | 9.7 | 9.7 | 0.00 | 0.00 | 0.00 | 69 | 1009.0 |
| 20260503032408 | 11 | 22 | 6.4 | 6.4 | 0.00 | 0.00 | 0.00 | 69 | 1009.0 |
| 20260503031908 | 12 | 45 | 6.4 | 8.0 | 0.00 | 0.00 | 0.00 | 70 | 1009.0 |
| 20260503031409 | 12 | 45 | 4.8 | 4.8 | 0.00 | 0.00 | 0.00 | 70 | 1009.0 |
| 20260503030908 | 12 | 68 | 4.8 | 4.8 | 0.00 | 0.00 | 0.00 | 69 | 1009.0 |
| 20260503030408 | 12 | 68 | 6.4 | 8.0 | 0.00 | 0.00 | 0.00 | 69 | 1009.0 |
| 20260503025908 | 12 | 45 | 3.2 | 3.2 | 0.00 | 0.00 | 0.00 | 68 | 1009.0 |
| 20260503025408 | 12 | 45 | 4.8 | 4.8 | 0.00 | 0.00 | 0.00 | 66 | 1009.0 |
| 20260503024908 | 12 | 45 | 0.0 | 0.0 | 0.00 | 0.00 | 0.00 | 65 | 1009.0 |
| 20260503024408 | 12 | 45 | 3.2 | 3.2 | 0.00 | 0.00 | 0.00 | 64 | 1010.0 |
| 20260503023908 | 12 | 68 | 1.6 | 1.6 | 0.00 | 0.00 | 0.00 | 64 | 1010.0 |
| 20260503023409 | 12 | 68 | 4.8 | 4.8 | 0.00 | 0.00 | 0.00 | 65 | 1010.0 |
| 20260503022908 | 12 | 68 | 4.8 | 4.8 | 0.00 | 0.00 | 0.00 | 68 | 1009.0 |
| 20260503022408 | 12 | 45 | 3.2 | 3.2 | 0.00 | 0.00 | 0.00 | 68 | 1009.0 |
| 20260503021908 | 12 | 45 | 1.6 | 1.6 | 0.00 | 0.00 | 0.00 | 67 | 1009.0 |
| 20260503021408 | 12 | 45 | 6.4 | 6.4 | 0.00 | 0.00 | 0.00 | 67 | 1010.0 |